Location: Evergreen Manor
(41.4083°N, 81.4939°W)
Time: 02:05:56
(UTC+00:00)

Cosmos 2195 Rocket - Pass Details

Date: 11 December 2019
Orbit: 949 x 993 km, 82.9° (Epoch: 20 January)

Event Time Altitude Azimuth Distance (km) Brightness Sun altitude
Rises 10:37:25 0° 351° (N) 3,719 7.3 -22.5°
Reaches altitude 10° 10:39:57 10° 351° (N) 2,766 6.7 -22.1°
Maximum altitude 10:46:19 83° 265° (W) 1,005 4.4 -20.9°
Drops below altitude 10° 10:52:36 10° 178° (S) 2,735 7.0 -19.8°
Sets 10:55:06 0° 178° (S) 3,675 7.7 -19.3°
